Flag for Argentina Weather past 2 weeks in Tucumán, Tucumán, Argentina

Now
55 °F

Scattered clouds.


Feels Like: 55 °F
Forecast: 39 / 59 °F
Wind: 5 mph from Southeast

Location: Tucuman Aerodrome

Current Time: Jul 4, 2015 at 2:46:16 PM

Latest Report: Jul 4, 2015 at 2:00 PM


Visibility: 4 mi

Pressure: 30.21 "Hg

Humidity: 72%

Dew point: 46 °F

Location of TucumánLocation

Historic Weather in Tucumán — Graph

°F

Tucumán temperature yesterday

Maximum temperature yesterday: 59 °F (at 4:00 PM)
Minimum temperature yesterday: 45 °F (at 11:00 PM)
Average temperature yesterday: 53 °F

Past Weeks' High & Low Weather Summary

 TemperatureHumidityPressure
High75 °F (Jun 30, 2:00 PM)100% (Jun 29, 2:00 AM)30.45 "Hg (Jun 29, 2:00 AM)
Low41 °F (Jun 20, 12:00 AM)34% (Jun 30, 2:00 PM)29.86 "Hg (Jun 28, 4:00 PM)
Average57 °F74%30.10 "Hg
* Reported Jun 19 1:00 PM — Jul 4 1:00 PM, Tucumán, Weather by CustomWeather, © 2015

Note: Actual official high and low records may vary slightly from our data, if they occured in-between our weather recording intervals... More about our weather records

Advertising

Tucumán weather history for previous 24 hours

 ConditionsComfort  
Time TempWeatherWind HumidityBarometerVisibility
1:00 PM
Sat, Jul 4
50 °FFog.6 mph82%30.27 "Hg3 mi
12:00 PM46 °FFog.2 mph87%30.30 "Hg3 mi
11:00 AM45 °FFog.5 mph93%30.30 "Hg0 mi
10:00 AM43 °FSunny.5 mph87%30.30 "Hg10 mi
9:00 AM41 °FSunny.7 mph87%30.30 "Hg10 mi
8:00 AM41 °FSunny.7 mph81%30.30 "Hg10 mi
7:00 AM41 °FClear.7 mph87%30.30 "Hg10 mi
6:00 AM41 °FClear.7 mph87%30.30 "Hg10 mi
5:00 AM43 °FClear.5 mph81%30.30 "Hg10 mi
3:00 AM45 °FClear.9 mph76%30.33 "Hg10 mi
2:00 AM45 °FClear.9 mph81%30.33 "Hg10 mi
1:00 AM45 °FClear.6 mph81%30.33 "Hg10 mi
12:00 AM45 °FClear.5 mph81%30.33 "Hg10 mi
11:00 PM
Fri, Jul 3
45 °FClear.7 mph87%30.30 "Hg10 mi
10:00 PM46 °FClear.7 mph82%30.30 "Hg10 mi
9:00 PM48 °FClear.8 mph87%30.30 "Hg10 mi
8:00 PM52 °FPassing clouds.5 mph72%30.27 "HgN/A
7:00 PM57 °FPassing clouds.2 mph67%30.24 "HgN/A
6:00 PM57 °FPassing clouds.2 mph63%30.24 "HgN/A
5:00 PM57 °FBroken clouds.No wind67%30.21 "HgN/A
4:00 PM59 °FBroken clouds.2 mph63%30.24 "HgN/A
3:00 PM55 °FPartly sunny.No wind77%30.27 "HgN/A
2:00 PM54 °FBroken clouds.3 mph94%30.30 "HgN/A
Weather by CustomWeather, © 2015

See weather overviewHow to use our weather pages